STARLINK-5175 (54079 NORAD) Tracking and Keplerian Element Data

This shows tracking and keplerian element data for the satellite.

Feedback or suggestion? Click here.




ElementValue
Catalog54079
NameSTARLINK-5175
Epoch Orbit550
Epoch Day325.33334491
Epoch Year2022
RAAN350.9
Inclination53.2154
Eccentricity0.0004073
Argument of Perigee11.3515
Mean Anonmoly331.7299
Mean Motion15.73176873
Decay Rate0.00034466
L11 54079U 22136AE 22325.33334491 .00034466 00000+0 24915-3 0 9999
L22 54079 53.2154 350.9000 0004073 11.3515 331.7299 15.73176873 5506



Live tracking and technical data element details for STARLINK-5175 (NORAD 54079). STARLINK-5175 can be tracked NOW for your location showing map with azimuth and elevation plus other details from your city location.







IsCatalogInMostPopularTable: catalog: 54079, numindb: 1
Update: records affected: 1



GetName: 54079 STARLINK-5175

Hit Count: updated at: Fri, 09 Dec 2022 20:15:49 GMT